Location: Ladrillo (historical)
(32.8195°N, 117.2231°W)
Time: 15:52:00
(UTC+00:00)

FO-99 - Visible Passes

Search period start: 12 April 2021 00:00
Search period end: 22 April 2021 00:00
Orbit: 474 x 504 km, 97.2° (Epoch: 11 April)

Date Brightness Start Highest point End Pass type
(mag) Time Alt. Az. Time Alt. Az. Time Alt. Az.
12 Apr ? 03:32:49 33° E 03:33:25 36° ENE 03:36:50 10° N visible
12 Apr ? 05:07:17 10° W 05:07:17 10° W 05:07:28 10° W visible
13 Apr ? 03:09:38 16° E 03:10:40 18° ENE 03:13:16 10° NNE visible
13 Apr ? 04:44:05 21° W 04:44:05 21° W 04:46:53 10° NW visible
14 Apr ? 04:20:52 42° WSW 04:21:06 42° W 04:24:39 10° NNW visible
15 Apr ? 03:57:39 63° SSE 03:58:12 86° ENE 04:01:55 10° N visible
16 Apr ? 03:34:27 32° ESE 03:35:22 39° ENE 03:38:51 10° N visible
17 Apr ? 03:11:14 16° E 03:12:37 20° ENE 03:15:20 10° NNE visible
17 Apr ? 04:45:41 19° WSW 04:46:02 19° W 04:48:45 10° NW visible
18 Apr ? 02:49:46 10° ENE 02:49:56 10° ENE 02:50:06 10° ENE visible
18 Apr ? 04:22:28 36° WSW 04:23:03 39° W 04:26:33 10° NNW visible
19 Apr ? 03:59:15 51° S 04:00:08 87° WSW 04:03:52 10° NNW visible
20 Apr ? 03:36:03 30° ESE 03:37:18 42° ENE 03:40:49 10° N visible
21 Apr ? 03:12:49 16° ESE 03:14:31 21° ENE 03:17:21 10° NNE visible
21 Apr ? 04:47:16 17° WSW 04:47:57 18° W 04:50:33 10° NW visible
